 day,  time,  air_temp(C),  RH(%),  ground_temp10cm(C),  ground_temp20cm(C),  ground_temp40cm(C),  precipitation(mm/h),  Solar_Radiation(MJ/m2h),  lack, 
 05/01/01, 01:00,  -5.4,  94,   0.4,   1.3,   3.1,   0.0,  0.00, 
 05/01/01, 02:00,  -5.8,  95,   0.4,   1.3,   3.1,   0.5,  0.00, 
 05/01/01, 03:00,  -5.9,  95,   0.4,   1.3,   3.1,   0.5,  0.00, 
 05/01/01, 04:00,  -5.9,  96,   0.4,   1.3,   3.1,   3.0,  0.00, 
 05/01/01, 05:00,  -6.4,  97,   0.4,   1.3,   3.1,   3.0,  0.00, 
 05/01/01, 06:00,  -6.8,  94,   0.4,   1.3,   3.1,   1.0,  0.00, 
 05/01/01, 07:00,  -7.1,  92,   0.4,   1.3,   3.1,   0.5,  0.00, 
 05/01/01, 08:00,  -7.5,  94,   0.4,   1.3,   3.1,   0.0,  0.03, 
 05/01/01, 09:00,  -7.0,  91,   0.4,   1.3,   3.1,   0.0,  0.35, 
 05/01/01, 10:00,  -5.9,  80,   0.4,   1.3,   3.1,   0.0,  0.80, 
 05/01/01, 11:00,  -5.7,  77,   0.5,   1.3,   3.0,   0.5,  1.49, 
 05/01/01, 12:00,  -6.2,  93,   0.5,   1.3,   3.0,   0.0,  0.94, 
 05/01/01, 13:00,  -6.8,  89,   0.5,   1.3,   3.0,   0.0,  0.98, 
 05/01/01, 14:00,  -6.5,  86,   0.5,   1.3,   3.0,   0.0,  1.04, 
 05/01/01, 15:00,  -6.5,  81,   0.5,   1.3,   3.0,   0.0,  0.76, 
 05/01/01, 16:00,  -7.9,  83,   0.5,   1.3,   3.0,   0.5,  0.37, 
 05/01/01, 17:00,  -8.7,  82,   0.5,   1.3,   3.0,   0.0,  0.09, 
 05/01/01, 18:00,  -9.1,  78,   0.4,   1.3,   3.0,   0.0,  0.00, 
 05/01/01, 19:00,  -9.1,  83,   0.4,   1.3,   3.0,   0.0,  0.00, 
 05/01/01, 20:00,  -9.4,  83,   0.4,   1.3,   3.0,   0.0,  0.00, 
 05/01/01, 21:00,  -9.6,  89,   0.4,   1.3,   3.0,   0.0,  0.00, 
 05/01/01, 22:00,  -9.9,  89,   0.4,   1.3,   3.0,   0.0,  0.00, 
 05/01/01, 23:00, -11.6,  92,   0.4,   1.3,   3.0,   0.0,  0.00, 
 05/01/02, 00:00, -10.5,  86,   0.4,   1.3,   3.0,   0.0,  0.00, 
 05/01/02, 01:00, -10.3,  86,   0.4,   1.3,   3.0,   0.0,  0.00, 
 05/01/02, 02:00,  -9.6,  78,   0.4,   1.3,   3.0,   0.0,  0.00, 
 05/01/02, 03:00,  -9.8,  80,   0.4,   1.3,   3.0,   0.0,  0.00, 
 05/01/02, 04:00,  -8.9,  77,   0.4,   1.3,   3.0,   0.0,  0.00, 
 05/01/02, 05:00,  -9.6,  79,   0.4,   1.3,   3.0,   0.0,  0.00, 
 05/01/02, 06:00,  -9.4,  82,   0.4,   1.3,   3.0,   0.0,  0.00, 
 05/01/02, 07:00,  -9.9,  85,   0.4,   1.3,   3.0,   0.0,  0.00, 
 05/01/02, 08:00,  -7.5,  77,   0.4,   1.3,   3.0,   0.0,  0.06, 
 05/01/02, 09:00,  -6.3,  76,   0.4,   1.3,   3.0,   0.0,  0.53, 
 05/01/02, 10:00,  -4.8,  70,   0.4,   1.3,   3.0,   0.0,  1.32, 
 05/01/02, 11:00,  -3.4,  63,   0.4,   1.3,   3.0,   0.0,  1.78, 
 05/01/02, 12:00,  -3.5,  62,   0.5,   1.3,   3.0,   0.0,  1.95, 
 05/01/02, 13:00,  -2.5,  66,   0.5,   1.3,   3.0,   0.0,  1.54, 
 05/01/02, 14:00,  -2.1,  70,   0.5,   1.3,   3.0,   0.0,  1.64, 
 05/01/02, 15:00,  -3.1,  69,   0.5,   1.3,   3.0,   0.0,  1.12, 
 05/01/02, 16:00,  -4.0,  82,   0.5,   1.3,   3.0,   0.0,  0.36, 
 05/01/02, 17:00,  -4.9,  80,   0.5,   1.3,   3.0,   0.0,  0.05, 
 05/01/02, 18:00,  -6.9,  88,   0.5,   1.3,   3.0,   0.0,  0.00, 
 05/01/02, 19:00,  -7.2,  89,   0.5,   1.3,   3.0,   0.0,  0.00, 
 05/01/02, 20:00,  -6.3,  81,   0.4,   1.3,   3.0,   0.0,  0.00, 
 05/01/02, 21:00,  -6.5,  84,   0.4,   1.3,   3.0,   0.0,  0.00, 
 05/01/02, 22:00,  -6.8,  83,   0.4,   1.3,   3.0,   0.0,  0.00, 
 05/01/02, 23:00,  -8.4,  90,   0.4,   1.3,   3.0,   0.0,  0.00, 
 05/01/03, 00:00,  -7.9,  86,   0.4,   1.3,   3.0,   0.0,  0.00, 
 05/01/03, 01:00,  -8.4,  86,   0.4,   1.3,   3.0,   0.0,  0.00, 
 05/01/03, 02:00,  -8.0,  86,   0.4,   1.3,   3.0,   0.0,  0.00, 
 05/01/03, 03:00,  -7.6,  80,   0.4,   1.3,   3.0,   0.0,  0.00, 
 05/01/03, 04:00,  -8.8,  87,   0.4,   1.3,   3.0,   0.0,  0.00, 
 05/01/03, 05:00, -10.4,  93,   0.4,   1.3,   3.0,   0.0,  0.00, 
 05/01/03, 06:00,  -7.1,  81,   0.4,   1.3,   3.0,   0.0,  0.00, 
 05/01/03, 07:00,  -6.9,  82,   0.4,   1.3,   3.0,   0.0,  0.00, 
 05/01/03, 08:00,  -7.3,  76,   0.4,   1.3,   3.0,   0.0,  0.05, 
 05/01/03, 09:00,  -4.2,  63,   0.4,   1.3,   3.0,   0.0,  1.04, 
 05/01/03, 10:00,  -1.7,  62,   0.5,   1.3,   3.0,   0.0,  1.70, 
 05/01/03, 11:00,  -1.9,  64,   0.5,   1.3,   3.0,   0.0,  1.54, 
 05/01/03, 12:00,  -1.3,  70,   0.5,   1.3,   3.0,   0.0,  1.11, 
 05/01/03, 13:00,   0.2,  57,   0.5,   1.3,   3.0,   0.0,  1.73, 
 05/01/03, 14:00,  -0.6,  74,   0.5,   1.3,   3.0,   0.0,  1.12, 
 05/01/03, 15:00,  -1.8,  80,   0.5,   1.3,   3.0,   0.0,  0.60, 
 05/01/03, 16:00,  -2.1,  82,   0.5,   1.3,   3.0,   0.0,  0.45, 
 05/01/03, 17:00,  -1.8,  74,   0.5,   1.3,   3.0,   0.0,  0.07, 
 05/01/03, 18:00,  -1.1,  75,   0.4,   1.3,   3.0,   0.0,  0.00, 
 05/01/03, 19:00,  -0.6,  73,   0.5,   1.3,   3.0,   0.0,  0.00, 
 05/01/03, 20:00,  -0.6,  75,   0.4,   1.3,   3.0,   0.0,  0.00, 
 05/01/03, 21:00,  -0.3,  77,   0.4,   1.3,   3.0,   0.0,  0.00, 
 05/01/03, 22:00,  -0.2,  77,   0.4,   1.3,   3.0,   0.0,  0.00, 
 05/01/03, 23:00,   0.4,  74,   0.5,   1.3,   3.0,   0.0,  0.00, 
 05/01/04, 00:00,  -0.2,  90,   0.4,   1.3,   3.0,   0.0,  0.00, 
 05/01/04, 01:00,   0.5,  90,   0.4,   1.3,   3.0,   0.0,  0.00, 
 05/01/04, 02:00,   0.3,  99,   0.5,   1.3,   3.0,   0.0,  0.00, 
 05/01/04, 03:00,   0.5,  99,   0.4,   1.3,   3.0,   0.0,  0.00, 
 05/01/04, 04:00,   0.7,  95,   0.4,   1.3,   3.0,   0.0,  0.00, 
 05/01/04, 05:00,   0.8,  97,   0.4,   1.3,   3.0,   0.5,  0.00, 
 05/01/04, 06:00,   0.7,  96,   0.4,   1.3,   3.0,   0.0,  0.00, 
 05/01/04, 07:00,   0.8,  93,   0.4,   1.3,   3.0,   0.0,  0.00, 
 05/01/04, 08:00,   0.0,  99,   0.4,   1.3,   3.0,   0.5,  0.00, 
 05/01/04, 09:00,  -0.1,  99,   0.4,   1.3,   2.9,   0.0,  0.00, 
 05/01/04, 10:00,   0.1,  99,   0.5,   1.3,   3.0,   0.0,  0.12, 
 05/01/04, 11:00,  -0.2,  99,   0.5,   1.3,   3.0,   0.5,  0.10, 
 05/01/04, 12:00,   0.2,  99,   0.5,   1.3,   3.1,   0.0,  0.32, 
 05/01/04, 13:00,  -0.1,  96,   0.6,   1.4,   3.1,   0.0,  0.54, 
 05/01/04, 14:00,  -2.0,  99,   0.6,   1.4,   3.1,   1.0,  0.17, 
 05/01/04, 15:00,  -2.7,  98,   0.6,   1.4,   3.1,   1.5,  0.11, 
 05/01/04, 16:00,  -3.3,  92,   0.6,   1.4,   3.1,   0.0,  0.07, 
 05/01/04, 17:00,  -3.7,  98,   0.5,   1.4,   3.1,   0.0,  0.00, 
 05/01/04, 18:00,  -4.3,  99,   0.5,   1.3,   3.0,   0.5,  0.00, 
 05/01/04, 19:00,  -4.9,  99,   0.5,   1.3,   2.9,   1.0,  0.00, 
 05/01/04, 20:00,  -5.8,  99,   0.5,   1.3,   2.9,   0.0,  0.00, 
 05/01/04, 21:00,  -7.0,  96,   0.5,   1.3,   2.9,   0.5,  0.00, 
 05/01/04, 22:00,  -7.6,  95,   0.5,   1.3,   2.9,   0.0,  0.00, 
 05/01/04, 23:00,  -8.1,  93,   0.5,   1.3,   2.9,   0.5,  0.00, 
 05/01/05, 00:00,  -8.2,  94,   0.5,   1.3,   2.9,   0.0,  0.00, 
 05/01/05, 01:00,  -8.9,  90,   0.5,   1.3,   2.9,   0.0,  0.00, 
 05/01/05, 02:00,  -9.5,  88,   0.5,   1.3,   2.9,   0.5,  0.00, 
 05/01/05, 03:00,  -9.6,  88,   0.5,   1.3,   2.9,   0.0,  0.00, 
 05/01/05, 04:00,  -9.8,  87,   0.5,   1.3,   2.9,   0.0,  0.00, 
 05/01/05, 05:00, -10.3,  83,   0.5,   1.3,   2.9,   0.0,  0.00, 
 05/01/05, 06:00, -10.5,  88,   0.6,   1.3,   2.9,   0.0,  0.00, 
 05/01/05, 07:00, -10.9,  88,   0.5,   1.3,   2.9,   0.0,  0.00, 
 05/01/05, 08:00, -11.3,  89,   0.6,   1.3,   2.9,   0.0,  0.05, 
 05/01/05, 09:00,  -9.5,  89,   0.6,   1.3,   2.9,   0.0,  0.70, 
 05/01/05, 10:00,  -8.3,  86,   0.6,   1.3,   2.9,   0.0,  1.21, 
 05/01/05, 11:00,  -7.7,  78,   0.6,   1.3,   2.9,   0.0,  1.84, 
 05/01/05, 12:00,  -7.1,  72,   0.6,   1.3,   2.9,   0.0,  2.23, 
 05/01/05, 13:00,  -6.7,  67,   0.6,   1.3,   2.9,   0.0,  1.88, 
 05/01/05, 14:00,  -6.2,  67,   0.6,   1.3,   2.9,   0.0,  1.87, 
 05/01/05, 15:00,  -7.0,  70,   0.6,   1.3,   2.9,   0.0,  0.81, 
 05/01/05, 16:00,  -7.4,  74,   0.6,   1.3,   2.9,   0.0,  0.21, 
 05/01/05, 17:00,  -8.4,  82,   0.6,   1.3,   2.9,   0.0,  0.04, 
 05/01/05, 18:00,  -9.4,  84,   0.6,   1.3,   2.9,   0.0,  0.00, 
 05/01/05, 19:00, -11.3,  91,   0.6,   1.3,   2.9,   0.0,  0.00, 
 05/01/05, 20:00, -11.5,  92,   0.6,   1.3,   2.9,   0.0,  0.00, 
 05/01/05, 21:00, -11.9,  92,   0.6,   1.3,   2.9,   0.0,  0.00, 
 05/01/05, 22:00, -10.6,  89,   0.6,   1.3,   2.9,   0.0,  0.00, 
 05/01/05, 23:00, -10.0,  83,   0.5,   1.4,   2.9,   0.0,  0.00, 
 05/01/06, 00:00,  -6.0,  49,   0.5,   1.4,   2.9,   0.0,  0.00, 
 05/01/06, 01:00,  -5.4,  56,   0.6,   1.3,   2.9,   0.0,  0.00, 
 05/01/06, 02:00,  -8.2,  74,   0.5,   1.4,   2.9,   0.0,  0.00, 
 05/01/06, 03:00,  -6.3,  74,   0.5,   1.4,   2.9,   0.0,  0.00, 
 05/01/06, 04:00,  -5.5,  77,   0.5,   1.4,   2.9,   0.0,  0.00, 
 05/01/06, 05:00,  -4.5,  86,   0.5,   1.4,   2.9,   0.0,  0.00, 
 05/01/06, 06:00,  -3.6,  75,   0.5,   1.4,   2.9,   0.0,  0.00, 
 05/01/06, 07:00,  -2.3,  65,   0.5,   1.4,   2.9,   0.0,  0.00, 
 05/01/06, 08:00,  -1.9,  73,   0.5,   1.4,   2.9,   0.0,  0.02, 
 05/01/06, 09:00,  -0.9,  76,   0.5,   1.4,   2.9,   0.0,  0.34, 
 05/01/06, 10:00,  -0.2,  75,   0.6,   1.4,   2.9,   0.0,  0.54, 
 05/01/06, 11:00,  -1.1,  98,   0.6,   1.4,   2.9,   0.0,  0.48, 
 05/01/06, 12:00,  -1.6,  97,   0.6,   1.4,   2.9,   0.5,  0.21, 
 05/01/06, 13:00,  -0.5,  79,   0.7,   1.5,   3.0,   0.0,  0.67, 
 05/01/06, 14:00,   1.4,  67,   0.7,   1.5,   3.0,   0.0,  1.11, 
 05/01/06, 15:00,   1.0,  76,   0.7,   1.5,   3.0,   0.0,  0.52, 
 05/01/06, 16:00,  -1.3,  99,   0.7,   1.5,   3.0,   0.0,  0.09, 
 05/01/06, 17:00,  -0.9,  96,   0.7,   1.5,   3.0,   0.5,  0.00, 
 05/01/06, 18:00,  -0.9,  99,   0.7,   1.5,   3.0,   1.0,  0.00, 
 05/01/06, 19:00,  -0.7,  99,   0.7,   1.5,   3.0,   0.5,  0.00, 
 05/01/06, 20:00,  -0.8,  99,   0.7,   1.5,   2.9,   1.0,  0.00, 
 05/01/06, 21:00,  -0.8,  99,   0.6,   1.5,   3.0,   0.5,  0.00, 
 05/01/06, 22:00,  -0.8,  99,   0.6,   1.5,   2.9,   0.0,  0.00, 
 05/01/06, 23:00,  -1.0,  99,   0.6,   1.4,   2.9,   0.0,  0.00, 
 05/01/07, 00:00,  -1.3,  99,   0.6,   1.5,   3.0,   0.0,  0.00, 
 05/01/07, 01:00,  -1.5,  94,   0.6,   1.5,   3.0,   0.0,  0.00, 
 05/01/07, 02:00,  -2.1,  92,   0.6,   1.5,   3.0,   0.0,  0.00, 
 05/01/07, 03:00,  -1.7,  92,   0.6,   1.5,   3.0,   0.0,  0.00, 
 05/01/07, 04:00,  -1.7,  92,   0.6,   1.5,   3.0,   0.0,  0.00, 
 05/01/07, 05:00,  -1.6,  91,   0.6,   1.4,   2.9,   0.5,  0.00, 
 05/01/07, 06:00,  -1.5,  92,   0.6,   1.5,   2.9,   0.0,  0.00, 
 05/01/07, 07:00,  -1.7,  95,   0.6,   1.4,   2.9,   0.0,  0.00, 
 05/01/07, 08:00,  -1.9,  99,   0.6,   1.5,   3.0,   0.0,  0.00, 
 05/01/07, 09:00,  -1.7,  99,   0.6,   1.5,   3.0,   0.0,  0.07, 
 05/01/07, 10:00,  -1.5,  98,   0.6,   1.5,   3.0,   0.0,  0.16, 
 05/01/07, 11:00,  -1.1,  97,   0.6,   1.4,   3.0,   0.0,  0.47, 
 05/01/07, 12:00,  -1.4,  98,   0.6,   1.5,   3.0,   0.0,  0.26, 
 05/01/07, 13:00,  -1.3,  96,   0.6,   1.5,   3.0,   0.0,  0.34, 
 05/01/07, 14:00,  -1.3,  97,   0.6,   1.5,   3.0,   0.0,  0.35, 
 05/01/07, 15:00,  -2.1,  99,   0.6,   1.5,   3.0,   0.0,  0.20, 
 05/01/07, 16:00,  -2.7,  99,   0.6,   1.5,   3.0,   3.0,  0.03, 
 05/01/07, 17:00,  -3.4,  99,   0.6,   1.5,   3.0,   0.0,  0.03, 
 05/01/07, 18:00,  -3.5,  99,   0.6,   1.5,   2.9,   0.5,  0.00, 
 05/01/07, 19:00,  -3.9,  94,   0.6,   1.5,   2.9,   1.0,  0.00, 
 05/01/07, 20:00,  -4.2,  99,   0.6,   1.5,   3.0,   0.5,  0.00, 
 05/01/07, 21:00,  -5.3,  99,   0.6,   1.5,   3.0,   4.0,  0.00, 
 05/01/07, 22:00,  -6.4,  91,   0.6,   1.5,   3.0,   0.5,  0.00, 
 05/01/07, 23:00,  -7.1,  93,   0.6,   1.5,   3.0,   0.0,  0.00, 
 05/01/08, 00:00,  -7.3,  97,   0.7,   1.4,   2.9,   0.5,  0.00, 
 05/01/08, 01:00,  -7.5,  91,   0.6,   1.4,   2.9,   0.0,  0.00, 
 05/01/08, 02:00,  -8.0,  88,   0.7,   1.4,   2.9,   0.0,  0.00, 
 05/01/08, 03:00,  -8.2,  90,   0.7,   1.4,   2.9,   0.0,  0.00, 
 05/01/08, 04:00,  -8.3,  87,   0.7,   1.4,   2.9,   0.5,  0.00, 
 05/01/08, 05:00,  -8.5,  91,   0.7,   1.4,   2.9,   0.0,  0.00, 
 05/01/08, 06:00,  -8.6,  92,   0.7,   1.4,   2.9,   0.0,  0.00, 
 05/01/08, 07:00,  -8.9,  91,   0.7,   1.4,   2.9,   0.5,  0.00, 
 05/01/08, 08:00,  -9.0,  87,   0.7,   1.4,   2.9,   0.0,  0.05, 
 05/01/08, 09:00,  -7.8,  87,   0.7,   1.4,   2.9,   0.0,  0.41, 
 05/01/08, 10:00,  -7.4,  90,   0.7,   1.4,   2.9,   0.0,  1.06, 
 05/01/08, 11:00,  -6.8,  81,   0.7,   1.4,   2.9,   0.0,  1.86, 
 05/01/08, 12:00,  -6.5,  69,   0.7,   1.5,   3.0,   0.0,  2.00, 
 05/01/08, 13:00,  -6.2,  72,   0.7,   1.5,   3.0,   0.0,  1.87, 
 05/01/08, 14:00,  -5.4,  80,   0.7,   1.5,   2.9,   0.0,  2.05, 
 05/01/08, 15:00,  -6.5,  71,   0.7,   1.4,   2.9,   0.0,  0.93, 
 05/01/08, 16:00,  -6.7,  59,   0.7,   1.4,   2.9,   0.0,  0.39, 
 05/01/08, 17:00,  -7.9,  87,   0.7,   1.4,   2.9,   0.0,  0.05, 
 05/01/08, 18:00,  -7.7,  61,   0.7,   1.4,   2.9,   0.0,  0.00, 
 05/01/08, 19:00,  -6.7,  60,   0.7,   1.4,   2.9,   0.0,  0.00, 
 05/01/08, 20:00,  -6.9,  64,   0.7,   1.4,   2.9,   0.0,  0.00, 
 05/01/08, 21:00,  -7.4,  74,   0.7,   1.4,   2.9,   0.0,  0.00, 
 05/01/08, 22:00,  -8.1,  83,   0.7,   1.4,   2.9,   0.0,  0.00, 
 05/01/08, 23:00,  -7.5,  78,   0.7,   1.4,   2.9,   0.0,  0.00, 
 05/01/09, 00:00,  -7.3,  86,   0.7,   1.4,   2.9,   0.0,  0.00, 
 05/01/09, 01:00,  -7.3,  87,   0.7,   1.4,   2.9,   0.0,  0.00, 
 05/01/09, 02:00,  -7.4,  94,   0.7,   1.4,   2.9,   0.0,  0.00, 
 05/01/09, 03:00,  -7.1,  94,   0.7,   1.4,   2.9,   0.5,  0.00, 
 05/01/09, 04:00,  -7.4,  94,   0.7,   1.4,   2.9,   0.0,  0.00, 
 05/01/09, 05:00,  -7.2,  93,   0.7,   1.4,   2.9,   0.0,  0.00, 
 05/01/09, 06:00,  -7.3,  94,   0.7,   1.4,   2.9,   0.0,  0.00, 
 05/01/09, 07:00,  -7.4,  96,   0.7,   1.4,   2.9,   0.5,  0.00, 
 05/01/09, 08:00,  -7.0,  95,   0.7,   1.4,   2.9,   1.0,  0.00, 
 05/01/09, 09:00,  -6.6,  95,   0.7,   1.4,   2.9,   0.0,  0.12, 
 05/01/09, 10:00,  -6.2,  96,   0.7,   1.4,   2.9,   1.0,  0.18, 
 05/01/09, 11:00,  -6.7,  96,   0.7,   1.4,   2.9,   1.0,  0.38, 
 05/01/09, 12:00,  -6.9,  93,   0.7,   1.4,   2.9,   0.0,  0.45, 
 05/01/09, 13:00,  -6.9,  87,   0.7,   1.4,   2.9,   0.0,  0.78, 
 05/01/09, 14:00,  -7.2,  83,   0.7,   1.4,   2.9,   0.0,  0.73, 
 05/01/09, 15:00,  -7.4,  82,   0.7,   1.5,   2.9,   0.5,  0.47, 
 05/01/09, 16:00,  -8.4,  87,   0.7,   1.4,   2.9,   0.0,  0.25, 
 05/01/09, 17:00,  -9.3,  84,   0.7,   1.5,   2.9,   0.0,  0.06, 
 05/01/09, 18:00,  -9.8,  82,   0.7,   1.5,   2.9,   0.0,  0.00, 
 05/01/09, 19:00, -10.3,  86,   0.7,   1.5,   2.9,   0.0,  0.00, 
 05/01/09, 20:00, -11.2,  88,   0.7,   1.5,   2.9,   0.0,  0.00, 
 05/01/09, 21:00, -10.4,  87,   0.7,   1.5,   2.9,   0.0,  0.00, 
 05/01/09, 22:00, -10.4,  85,   0.7,   1.5,   2.9,   0.0,  0.00, 
 05/01/09, 23:00, -11.1,  87,   0.7,   1.5,   2.9,   0.0,  0.00, 
 05/01/10, 00:00, -10.6,  81,   0.7,   1.5,   2.9,   0.0,  0.00, 
 05/01/10, 01:00, -11.5,  95,   0.7,   1.5,   2.9,   0.0,  0.00, 
 05/01/10, 02:00, -10.9,  85,   0.7,   1.5,   2.9,   0.0,  0.00, 
 05/01/10, 03:00, -10.0,  76,   0.7,   1.5,   2.9,   0.0,  0.00, 
 05/01/10, 04:00, -11.8,  85,   0.7,   1.5,   2.9,   0.0,  0.00, 
 05/01/10, 05:00,  -9.6,  74,   0.7,   1.5,   2.9,   0.0,  0.00, 
 05/01/10, 06:00, -11.1,  86,   0.7,   1.5,   2.9,   0.0,  0.00, 
 05/01/10, 07:00, -10.0,  83,   0.7,   1.5,   2.9,   0.0,  0.00, 
 05/01/10, 08:00,  -8.7,  82,   0.7,   1.5,   2.9,   0.0,  0.05, 
 05/01/10, 09:00,  -7.1,  78,   0.7,   1.5,   2.9,   0.0,  0.29, 
 05/01/10, 10:00,  -7.3,  78,   0.8,   1.5,   2.9,   0.0,  0.45, 
 05/01/10, 11:00,  -6.3,  79,   0.8,   1.5,   2.9,   0.0,  0.71, 
 05/01/10, 12:00,  -6.5,  81,   0.8,   1.5,   2.9,   0.0,  0.77, 
 05/01/10, 13:00,  -6.3,  87,   0.8,   1.5,   2.9,   0.0,  0.73, 
 05/01/10, 14:00,  -5.9,  88,   0.8,   1.5,   2.9,   0.0,  0.72, 
 05/01/10, 15:00,  -5.2,  81,   0.8,   1.5,   2.9,   0.0,  1.22, 
 05/01/10, 16:00,  -6.2,  90,   0.8,   1.5,   2.9,   0.0,  0.46, 
 05/01/10, 17:00,  -6.7,  95,   0.8,   1.5,   2.9,   0.0,  0.04, 
 05/01/10, 18:00,  -6.8,  95,   0.8,   1.5,   2.9,   0.5,  0.00, 
 05/01/10, 19:00,  -6.9,  97,   0.8,   1.5,   2.9,   0.5,  0.00, 
 05/01/10, 20:00,  -6.8,  97,   0.8,   1.5,   2.9,   0.5,  0.00, 
 05/01/10, 21:00,  -6.9,  97,   0.8,   1.5,   2.9,   0.5,  0.00, 
 05/01/10, 22:00,  -7.0,  97,   0.8,   1.5,   2.9,   1.0,  0.00, 
 05/01/10, 23:00,  -7.1,  97,   0.8,   1.5,   2.9,   1.0,  0.00, 
 05/01/11, 00:00,  -7.2,  94,   0.8,   1.5,   2.9,   0.5,  0.00, 
 05/01/11, 01:00,  -7.4,  94,   0.8,   1.5,   2.9,   0.0,  0.00, 
 05/01/11, 02:00,  -7.6,  93,   0.8,   1.5,   2.9,   0.0,  0.00, 
 05/01/11, 03:00,  -7.7,  94,   0.8,   1.5,   2.9,   0.0,  0.00, 
 05/01/11, 04:00,  -7.7,  96,   0.8,   1.5,   2.9,   1.0,  0.00, 
 05/01/11, 05:00,  -7.6,  95,   0.8,   1.5,   2.9,   1.0,  0.00, 
 05/01/11, 06:00,  -7.6,  96,   0.8,   1.5,   2.9,   1.5,  0.00, 
 05/01/11, 07:00,  -7.7,  95,   0.8,   1.5,   2.9,   1.0,  0.00, 
 05/01/11, 08:00,  -7.6,  97,   0.8,   1.5,   2.9,   1.0,  0.00, 
 05/01/11, 09:00,  -7.2,  96,   0.8,   1.5,   2.9,   0.5,  0.01, 
 05/01/11, 10:00,  -7.0,  97,   0.8,   1.5,   2.9,   2.5,  0.09, 
 05/01/11, 11:00,  -6.3,  99,   0.8,   1.5,   2.9,   2.0,  0.17, 
 05/01/11, 12:00,  -6.1,  98,   0.8,   1.5,   2.9,   1.5,  0.20, 
 05/01/11, 13:00,  -6.3,  97,   0.8,   1.5,   2.9,   1.0,  0.24, 
 05/01/11, 14:00,  -6.1,  97,   0.8,   1.5,   2.9,   0.5,  0.31, 
 05/01/11, 15:00,  -5.6,  95,   0.8,   1.5,   2.9,   0.5,  0.34, 
 05/01/11, 16:00,  -6.4,  94,   0.8,   1.5,   2.9,   0.5,  0.14, 
 05/01/11, 17:00,  -6.8,  95,   0.8,   1.5,   2.9,   0.5,  0.01, 
 05/01/11, 18:00,  -7.0,  97,   0.8,   1.5,   2.9,   1.0,  0.00, 
 05/01/11, 19:00,  -7.0,  97,   0.8,   1.5,   2.9,   1.5,  0.00, 
 05/01/11, 20:00,  -7.2,  97,   0.8,   1.5,   2.9,   0.5,  0.00, 
 05/01/11, 21:00,  -7.6,  95,   0.8,   1.5,   2.9,   0.0,  0.00, 
 05/01/11, 22:00,  -7.4,  96,   0.9,   1.6,   2.9,   0.5,  0.00, 
 05/01/11, 23:00,  -7.1,  96,   0.9,   1.6,   2.9,   0.0,  0.00, 
 05/01/12, 00:00,  -7.1,  97,   0.9,   1.6,   2.9,   0.5,  0.00, 
 05/01/12, 01:00,  -7.1,  96,   0.9,   1.6,   2.9,   0.5,  0.00, 
 05/01/12, 02:00,  -7.2,  97,   0.9,   1.6,   2.9,   0.5,  0.00, 
 05/01/12, 03:00,  -7.3,  95,   0.9,   1.6,   2.9,   0.0,  0.00, 
 05/01/12, 04:00,  -7.3,  95,   0.9,   1.6,   2.9,   0.0,  0.00, 
 05/01/12, 05:00,  -7.4,  96,   0.9,   1.6,   2.9,   1.0,  0.00, 
 05/01/12, 06:00,  -7.4,  96,   0.9,   1.6,   2.9,   0.5,  0.00, 
 05/01/12, 07:00,  -7.3,  95,   0.9,   1.6,   2.9,   0.0,  0.00, 
 05/01/12, 08:00,  -7.3,  96,   0.9,   1.6,   2.9,   1.5,  0.00, 
 05/01/12, 09:00,  -7.1,  96,   0.9,   1.6,   2.9,   1.0,  0.00, 
 05/01/12, 10:00,  -7.4,  97,   0.9,   1.6,   2.9,   2.5,  0.13, 
 05/01/12, 11:00,  -8.0,  99,   1.0,   1.6,   2.9,   0.5,  0.41, 
 05/01/12, 12:00,  -7.9,  99,   1.0,   1.6,   2.9,   1.0,  0.57, 
 05/01/12, 13:00,  -8.2,  96,   1.0,   1.6,   2.9,   0.5,  0.57, 
 05/01/12, 14:00,  -9.1,  92,   1.0,   1.7,   2.9,   1.0,  0.53, 
 05/01/12, 15:00,  -9.4,  92,   1.0,   1.6,   2.9,   0.0,  0.46, 
 05/01/12, 16:00,  -9.8,  90,   1.0,   1.6,   2.9,   1.0,  0.25, 
 05/01/12, 17:00, -10.2,  91,   1.0,   1.6,   2.9,   0.0,  0.05, 
 05/01/12, 18:00, -10.2,  91,   1.0,   1.6,   2.9,   0.5,  0.00, 
 05/01/12, 19:00, -10.1,  92,   1.0,   1.6,   2.9,   0.0,  0.00, 
 05/01/12, 20:00, -10.1,  93,   1.0,   1.6,   2.9,   0.5,  0.00, 
 05/01/12, 21:00, -10.0,  92,   1.0,   1.6,   2.9,   0.0,  0.00, 
 05/01/12, 22:00,  -9.8,  91,   1.0,   1.6,   2.9,   0.5,  0.00, 
 05/01/12, 23:00,  -9.8,  92,   1.0,   1.6,   2.9,   0.0,  0.00, 
 05/01/13, 00:00,  -9.4,  92,   1.0,   1.6,   2.9,   0.0,  0.00, 
 05/01/13, 01:00,  -9.3,  89,   0.9,   1.6,   2.9,   0.5,  0.00, 
 05/01/13, 02:00,  -9.4,  92,   0.9,   1.6,   2.9,   0.0,  0.00, 
 05/01/13, 03:00,  -9.2,  92,   0.9,   1.6,   2.9,   0.0,  0.00, 
 05/01/13, 04:00,  -8.8,  93,   0.9,   1.6,   2.9,   0.0,  0.00, 
 05/01/13, 05:00,  -8.5,  90,   0.9,   1.6,   2.9,   0.5,  0.00, 
 05/01/13, 06:00,  -8.6,  94,   0.9,   1.6,   2.9,   0.0,  0.00, 
 05/01/13, 07:00,  -8.5,  93,   0.9,   1.6,   2.9,   0.0,  0.00, 
 05/01/13, 08:00,  -8.1,  93,   0.9,   1.6,   2.9,   0.5,  0.00, 
 05/01/13, 09:00,  -7.4,  94,   0.9,   1.6,   2.9,   0.0,  0.15, 
 05/01/13, 10:00,  -6.0,  93,   0.9,   1.6,   2.9,   0.5,  0.37, 
 05/01/13, 11:00,  -4.7,  83,   1.0,   1.6,   2.9,   0.0,  0.53, 
 05/01/13, 12:00,  -4.8,  77,   1.0,   1.6,   2.9,   0.0,  0.66, 
 05/01/13, 13:00,  -4.3,  79,   1.0,   1.6,   2.9,   0.0,  0.73, 
 05/01/13, 14:00,  -3.5,  75,   1.0,   1.6,   2.9,   0.0,  1.37, 
 05/01/13, 15:00,  -4.1,  72,   1.0,   1.6,   2.9,   0.0,  1.20, 
 05/01/13, 16:00,  -5.0,  85,   1.0,   1.6,   2.9,   0.0,  0.63, 
 05/01/13, 17:00,  -5.7,  84,   1.0,   1.6,   2.9,   0.0,  0.07, 
 05/01/13, 18:00,  -5.7,  80,   1.0,   1.6,   2.9,   0.0,  0.00, 
 05/01/13, 19:00,  -5.7,  83,   1.0,   1.6,   2.9,   0.0,  0.00, 
 05/01/13, 20:00,  -7.4,  92,   1.0,   1.6,   2.9,   0.0,  0.00, 
 05/01/13, 21:00,  -6.5,  81,   1.0,   1.6,   2.9,   0.0,  0.00, 
 05/01/13, 22:00,  -4.7,  70,   1.0,   1.6,   2.9,   0.0,  0.00, 
 05/01/13, 23:00,  -4.9,  75,   1.0,   1.6,   2.9,   0.0,  0.00, 
 05/01/14, 00:00,  -4.9,  82,   1.0,   1.6,   2.9,   0.0,  0.00, 
 05/01/14, 01:00,  -5.5,  90,   1.0,   1.6,   2.9,   0.0,  0.00, 
 05/01/14, 02:00,  -4.6,  84,   1.0,   1.6,   2.9,   0.0,  0.00, 
 05/01/14, 03:00,  -5.1,  91,   1.0,   1.6,   2.9,   0.0,  0.00, 
 05/01/14, 04:00,  -6.0,  93,   1.0,   1.6,   2.9,   0.0,  0.00, 
 05/01/14, 05:00,  -6.7,  91,   1.0,   1.6,   2.9,   0.0,  0.00, 
 05/01/14, 06:00,  -7.8,  94,   1.0,   1.6,   2.9,   0.0,  0.00, 
 05/01/14, 07:00,  -7.9,  91,   1.0,   1.6,   2.9,   0.0,  0.00, 
 05/01/14, 08:00,  -8.1,  92,   1.0,   1.6,   2.9,   0.0,  0.01, 
 05/01/14, 09:00,  -5.4,  93,   1.1,   1.6,   2.9,   0.0,  0.27, 
 05/01/14, 10:00,  -4.0,  89,   1.1,   1.6,   2.9,   0.0,  0.57, 
 05/01/14, 11:00,  -3.9,  90,   1.1,   1.6,   2.9,   0.0,  1.06, 
 05/01/14, 12:00,  -3.1,  87,   1.1,   1.7,   3.0,   0.0,  2.00, 
 05/01/14, 13:00,  -2.2,  87,   1.1,   1.7,   2.9,   0.0,  1.60, 
 05/01/14, 14:00,  -3.1,  95,   1.1,   1.7,   3.0,   0.0,  0.57, 
 05/01/14, 15:00,  -3.3,  94,   1.1,   1.7,   2.9,   0.0,  0.39, 
 05/01/14, 16:00,  -3.4,  95,   1.1,   1.6,   2.9,   0.0,  0.32, 
 05/01/14, 17:00,  -4.0,  96,   1.1,   1.6,   2.9,   0.0,  0.10, 
 05/01/14, 18:00,  -4.4,  96,   1.1,   1.7,   3.0,   0.0,  0.00, 
 05/01/14, 19:00,  -5.2,  97,   1.1,   1.7,   3.0,   0.0,  0.00, 
 05/01/14, 20:00,  -4.8,  96,   1.1,   1.6,   2.9,   0.0,  0.00, 
 05/01/14, 21:00,  -4.2,  92,   1.1,   1.6,   2.9,   0.0,  0.00, 
 05/01/14, 22:00,  -4.6,  91,   1.1,   1.6,   2.9,   0.0,  0.00, 
 05/01/14, 23:00,  -1.6,  74,   1.1,   1.6,   2.9,   0.0,  0.00, 
 05/01/15, 00:00,  -2.1,  77,   1.0,   1.6,   2.9,   0.5,  0.00, 
 05/01/15, 01:00,  -2.5,  85,   1.0,   1.6,   2.9,   0.0,  0.00, 
 05/01/15, 02:00,  -3.0,  93,   1.0,   1.6,   2.9,   0.0,  0.00, 
 05/01/15, 03:00,  -2.9,  97,   1.0,   1.6,   2.9,   0.0,  0.00, 
 05/01/15, 04:00,  -2.7,  95,   1.1,   1.6,   2.9,   0.0,  0.00, 
 05/01/15, 05:00,  -3.0,  98,   1.0,   1.6,   2.9,   0.0,  0.00, 
 05/01/15, 06:00,  -1.7,  93,   1.0,   1.6,   2.9,   0.0,  0.00, 
 05/01/15, 07:00,  -2.2,  97,   1.0,   1.6,   2.9,   0.0,  0.00, 
 05/01/15, 08:00,  -1.3,  95,   1.0,   1.6,   2.9,   0.0,  0.01, 
 05/01/15, 09:00,  -0.3,  93,   1.0,   1.6,   2.9,   0.0,  0.22, 
 05/01/15, 10:00,   0.8,  92,   1.1,   1.6,   2.9,   0.0,  0.61, 
 05/01/15, 11:00,   2.0,  86,   1.0,   1.6,   2.9,   0.0,  1.21, 
 05/01/15, 12:00,   1.7,  87,   1.1,   1.6,   2.9,   0.0,  1.63, 
 05/01/15, 13:00,   3.1,  76,   1.1,   1.7,   2.9,   0.0,  1.98, 
 05/01/15, 14:00,   1.8,  95,   1.1,   1.6,   2.9,   0.0,  1.19, 
 05/01/15, 15:00,   2.1,  90,   1.1,   1.6,   2.9,   0.0,  0.61, 
 05/01/15, 16:00,   1.5,  96,   1.0,   1.6,   2.9,   0.0,  0.26, 
 05/01/15, 17:00,   1.0,  98,   1.0,   1.6,   2.9,   0.0,  0.01, 
 05/01/15, 18:00,   0.4,  99,   1.0,   1.6,   2.9,   0.0,  0.00, 
 05/01/15, 19:00,  -0.3,  99,   1.0,   1.6,   2.9,   1.5,  0.00, 
 05/01/15, 20:00,  -1.1,  99,   1.1,   1.6,   2.9,   1.0,  0.00, 
 05/01/15, 21:00,  -1.2,  99,   1.0,   1.6,   2.9,   1.0,  0.00, 
 05/01/15, 22:00,  -1.5,  99,   1.0,   1.6,   2.9,   1.5,  0.00, 
 05/01/15, 23:00,  -1.5,  99,   1.0,   1.6,   2.9,   1.5,  0.00, 
 05/01/16, 00:00,  -1.7,  99,   1.0,   1.6,   2.9,   1.5,  0.00, 
 05/01/16, 01:00,  -1.5,  99,   1.0,   1.6,   2.9,   0.5,  0.00, 